Hourly Data Report for September 01, 2017

All times are specified in Local Standard Time (LST). Add 1 hour to adjust for Daylight Saving Time where and when it is observed.

ALGONQUIN PARK EAST GATE
ONTARIO

45°32'00.000" N
78°16'00.000" W
397.00 m
6080192
71581
TNK

Download Data

Hourly Data (September 2017)
Hourly Data Report for September 1, 2017
Temp Definition
°C
Dew Point Temp Definition
°C
Rel Hum Definition
%
Wind Dir Definition
10's deg

Wind Spd Definition
km/h
Visibility Definition
km
Stn Press Definition
kPa
Hmdx Definition


Wind Chill Definition


Weather Definition


TIME
00:00 4.5 3.2 91 0 1   97.49     LegendNANA
01:00 4.3 3.0 91   0   97.50     LegendNANA
02:00 4.4 3.1 92 0 1   97.51     LegendNANA
03:00 3.4 2.3 92   0   97.50     LegendNANA
04:00 2.5 1.5 93   0   97.54     LegendNANA
05:00 1.6 0.6 94   0   97.57     LegendNANA
06:00 1.0 0.2 94   0   97.64     LegendNANA
07:00 4.9 4.1 94 27 3   97.67     LegendNANA
08:00 7.3 4.3 82 30 4   97.71     LegendNANA
09:00 10.0 3.0 62 36 8   97.72     LegendNANA
10:00 10.7 2.0 55 35 8   97.69     LegendNANA
11:00 11.9 2.3 52 36 8   97.66     LegendNANA
12:00 12.9 0.0 41 35 6   97.61     LegendNANA
13:00 14.6 2.7 44 1 5   97.60     LegendNANA
14:00 14.4 0.9 40 1 6   97.56     LegendNANA
15:00 15.3 1.5 39 32 5   97.53     LegendNANA
16:00 15.1 1.7 40 32 6   97.48     LegendNANA
17:00 14.8 1.9 42 35 3   97.47     LegendNANA
18:00 12.9 4.7 58 30 1   97.47     LegendNANA
19:00 8.8 4.8 76   0   97.48     LegendNANA
20:00 6.9 4.5 85   0   97.56     LegendNANA
21:00 5.1 3.3 88   0   97.56     LegendNANA
22:00 3.8 2.3 90   0   97.59     LegendNANA
23:00 2.7 1.3 91   0   97.58     LegendNANA

Notes on Data Quality.

Legend

  • E = Estimated
  • M = Missing
  • NA = Not Available
  • ‡ = Partner data that is not subject to review by the National Climate Archives
Date modified: